Weather History for Litchfield, MN

Change the Weather History Date:

Saturday, April 12, 2014

  Actual Average Record
Temperature  
Mean Temperature 50 °F -  
Max Temperature 57 °F 55 °F 82 °F (1968)
Min Temperature 42 °F 33 °F 3 °F (1997)
Degree Days  
Heating Degree Days 14    
Moisture  
Dew Point 42 °F    
Average Humidity 73    
Maximum Humidity 93    
Minimum Humidity 50    
Precipitation  
Precipitation 0.00 in - - ()
Sea Level Pressure  
Sea Level Pressure 29.76 in    
Wind  
Wind Speed 10 mph (ENE)    
Max Wind Speed 25 mph    
Max Gust Speed 32 mph    
Visibility 10 miles    
Events Rain , Thunderstorm    
Averages and records for this station are not official NWS values.
T = Trace of Precipitation, MM = Missing Value Source: NWS Daily Summary

Daily Weather History Graph

Daily Weather History Graph

Search for Another Location

Airport:

Trip Planner

Search our weather history database for the weather conditions in past years. The results will help you decide how hot, cold, wet, or windy it might be!

Date:

Astronomy

Apr. 12, 2014 Rise Set
Actual Time 6:38 AM CDT 7:59 PM CDT
Civil Twilight 6:08 AM CDT 8:30 PM CDT
Nautical Twilight 5:31 AM CDT 9:07 PM CDT
Astronomical Twilight 4:52 AM CDT 9:46 PM CDT
Moon 5:33 PM CDT (4/12) 5:12 AM CDT (4/12)
Length of Visible Light 14h 22m
Length of Day
13h 21m
Waxing Gibbous, 93% of the Moon is Illuminated
Apr 12
Waxing Gibbous
Apr 15
Full
Apr 22
Last Quarter
Apr 29
New
May 6
First Quarter

Hourly Weather History & Observations

Time (CDT) Temp. Windchill Dew Point Humidity Pressure Visibility Wind Dir Wind Speed Gust Speed Precip Events Conditions
12:13 AM 51.8 °F - 35.6 °F 54% 29.87 in 10.0 mi ESE 6.9 mph - N/A   Mostly Cloudy
12:33 AM 48.2 °F - 35.6 °F 62% 29.85 in 10.0 mi ESE 8.1 mph - N/A   Scattered Clouds
12:53 AM 48.2 °F - 37.4 °F 66% 29.87 in 10.0 mi SE 3.5 mph - N/A   Scattered Clouds
1:12 AM 51.8 °F - 33.8 °F 50% 29.89 in 10.0 mi SSE 4.6 mph - N/A   Scattered Clouds
1:33 AM 51.8 °F - 35.6 °F 54% 29.87 in 10.0 mi East 6.9 mph - N/A   Unknown
1:53 AM 51.8 °F - 35.6 °F 54% 29.84 in 10.0 mi NE 9.2 mph - N/A   Light Drizzle
2:12 AM 51.8 °F - 35.6 °F 54% 29.86 in 10.0 mi East 5.8 mph - N/A   Mostly Cloudy
2:33 AM 51.8 °F - 33.8 °F 50% 29.86 in 10.0 mi ENE 5.8 mph - N/A   Overcast
2:53 AM 50.0 °F - 35.6 °F 58% 29.87 in 10.0 mi NE 6.9 mph - N/A   Mostly Cloudy
3:12 AM 48.2 °F - 33.8 °F 58% 29.86 in 10.0 mi ENE 10.4 mph - N/A   Overcast
3:33 AM 48.2 °F - 33.8 °F 58% 29.83 in 10.0 mi NE 12.7 mph - N/A   Light Drizzle
3:53 AM 48.2 °F - 33.8 °F 58% 29.86 in 10.0 mi NE 5.8 mph - N/A   Overcast
4:12 AM 46.4 °F 42.9 °F 35.6 °F 66% 29.85 in 10.0 mi ENE 6.9 mph - N/A Rain Rain
4:33 AM 46.4 °F 41.5 °F 35.6 °F 66% 29.82 in 10.0 mi ENE 10.4 mph - N/A   Drizzle
4:53 AM 46.4 °F 41.1 °F 35.6 °F 66% 29.83 in 10.0 mi ENE 11.5 mph - N/A   Drizzle
5:12 AM 46.4 °F 40.4 °F 37.4 °F 71% 29.80 in 10.0 mi ENE 13.8 mph 19.6 mph N/A   Drizzle
5:33 AM 46.4 °F 41.5 °F 37.4 °F 71% 29.83 in 10.0 mi NNE 10.4 mph 17.3 mph N/A Rain , Thunderstorm Light Thunderstorms and Rain
5:53 AM 44.6 °F 38.8 °F 39.2 °F 81% 29.81 in 10.0 mi NE 11.5 mph 16.1 mph N/A   Light Drizzle
6:12 AM 44.6 °F 37.4 °F 39.2 °F 81% 29.79 in 10.0 mi ENE 16.1 mph 20.7 mph N/A   Overcast
6:33 AM 46.4 °F 39.5 °F 41.0 °F 81% 29.78 in 10.0 mi ENE 17.3 mph 21.9 mph N/A   Mostly Cloudy
6:53 AM 44.6 °F 37.2 °F 39.2 °F 81% 29.76 in 10.0 mi ENE 17.3 mph 24.2 mph N/A   Mostly Cloudy
7:12 AM 44.6 °F 36.9 °F 39.2 °F 81% 29.76 in 10.0 mi East 18.4 mph 26.5 mph N/A Thunderstorm Scattered Clouds
7:33 AM 44.6 °F 36.9 °F 39.2 °F 81% 29.76 in 10.0 mi ENE 18.4 mph 27.6 mph N/A Thunderstorm Mostly Cloudy
7:52 AM 44.6 °F 36.6 °F 41.0 °F 87% 29.76 in 10.0 mi East 19.6 mph 26.5 mph N/A   Overcast
8:13 AM 46.4 °F 38.5 °F 41.0 °F 81% 29.75 in 10.0 mi East 21.9 mph 27.6 mph N/A   Overcast
8:33 AM 46.4 °F 39.2 °F 41.0 °F 81% 29.75 in 10.0 mi East 18.4 mph 26.5 mph N/A   Scattered Clouds
8:53 AM 46.4 °F 39.0 °F 42.8 °F 87% 29.73 in 10.0 mi East 19.6 mph 27.6 mph N/A   Clear
9:13 AM 46.4 °F 37.9 °F 42.8 °F 87% 29.72 in 10.0 mi East 25.3 mph 32.2 mph N/A   Clear
9:33 AM 48.2 °F - 42.8 °F 82% 29.73 in 10.0 mi East 17.3 mph 28.8 mph N/A   Clear
9:53 AM 48.2 °F - 42.8 °F 82% 29.73 in 10.0 mi East 20.7 mph - N/A   Clear
10:13 AM 50.0 °F - 42.8 °F 76% 29.72 in 10.0 mi East 19.6 mph - N/A   Clear
10:33 AM 50.0 °F - 42.8 °F 76% 29.72 in 10.0 mi East 15.0 mph - N/A   Clear
10:53 AM 53.6 °F - 44.6 °F 72% 29.72 in 10.0 mi East 16.1 mph 19.6 mph N/A   Clear
11:12 AM 53.6 °F - 44.6 °F 72% 29.72 in 10.0 mi East 15.0 mph 19.6 mph N/A   Clear
11:33 AM 53.6 °F - 44.6 °F 72% 29.71 in 10.0 mi East 15.0 mph - N/A   Clear
11:52 AM 53.6 °F - 44.6 °F 72% 29.72 in 10.0 mi East 13.8 mph - N/A   Clear
12:13 PM 55.4 °F - 44.6 °F 67% 29.72 in 10.0 mi East 15.0 mph - N/A   Clear
12:33 PM 55.4 °F - 46.4 °F 72% 29.72 in 10.0 mi ESE 13.8 mph - N/A   Clear
12:52 PM 57.2 °F - 46.4 °F 67% 29.72 in 10.0 mi ESE 13.8 mph - N/A   Scattered Clouds
1:13 PM 57.2 °F - 46.4 °F 67% 29.72 in 10.0 mi ENE 9.2 mph - N/A   Scattered Clouds
1:33 PM 57.2 °F - 46.4 °F 67% 29.71 in 10.0 mi ESE 11.5 mph 17.3 mph N/A   Clear
1:52 PM 57.2 °F - 46.4 °F 67% 29.71 in 10.0 mi ESE 11.5 mph - N/A   Clear
2:13 PM 57.2 °F - 46.4 °F 67% 29.71 in 10.0 mi East 8.1 mph 11.5 mph N/A   Clear
2:33 PM 57.2 °F - 46.4 °F 67% 29.71 in 10.0 mi East 10.4 mph - N/A Thunderstorm Clear
2:52 PM 57.2 °F - 46.4 °F 67% 29.71 in 10.0 mi East 9.2 mph - N/A   Clear
3:13 PM 57.2 °F - 46.4 °F 67% 29.71 in 10.0 mi ENE 8.1 mph - N/A   Clear
3:33 PM 57.2 °F - 46.4 °F 67% 29.71 in 10.0 mi ENE 9.2 mph - N/A   Clear
3:52 PM 57.2 °F - 46.4 °F 67% 29.71 in 10.0 mi NE 9.2 mph - N/A   Scattered Clouds
4:13 PM 57.2 °F - 46.4 °F 67% 29.70 in 10.0 mi NE 9.2 mph - N/A   Clear
4:33 PM 57.2 °F - 46.4 °F 67% 29.71 in 10.0 mi NE 10.4 mph - N/A   Clear
4:52 PM 57.2 °F - 46.4 °F 67% 29.70 in 10.0 mi ENE 9.2 mph - N/A   Clear
5:13 PM 57.2 °F - 46.4 °F 67% 29.70 in 10.0 mi ENE 9.2 mph - N/A   Clear
5:33 PM 55.4 °F - 46.4 °F 72% 29.70 in 10.0 mi ENE 10.4 mph - N/A   Clear
5:53 PM 55.4 °F - 46.4 °F 72% 29.70 in 10.0 mi ENE 10.4 mph - N/A   Clear
6:13 PM 55.4 °F - 46.4 °F 72% 29.71 in 10.0 mi ENE 9.2 mph - N/A   Clear
6:33 PM 55.4 °F - 46.4 °F 72% 29.71 in 10.0 mi East 11.5 mph - N/A   Clear
6:53 PM 53.6 °F - 44.6 °F 72% 29.72 in 10.0 mi ENE 10.4 mph - N/A   Clear
7:13 PM 53.6 °F - 44.6 °F 72% 29.72 in 10.0 mi ENE 6.9 mph - N/A   Clear
7:33 PM 51.8 °F - 44.6 °F 76% 29.72 in 10.0 mi ENE 8.1 mph - N/A   Clear
7:53 PM 50.0 °F - 44.6 °F 82% 29.74 in 10.0 mi East 6.9 mph - N/A   Clear
8:13 PM 48.2 °F - 44.6 °F 87% 29.75 in 10.0 mi ENE 5.8 mph - N/A   Clear
8:33 PM 48.2 °F - 44.6 °F 87% 29.75 in 10.0 mi ENE 4.6 mph - N/A   Clear
8:53 PM 46.4 °F 45.2 °F 42.8 °F 87% 29.76 in 10.0 mi NE 3.5 mph - N/A   Clear
9:13 PM 46.4 °F 44.3 °F 42.8 °F 87% 29.76 in 10.0 mi NNE 4.6 mph - N/A   Clear
9:33 PM 44.6 °F 42.2 °F 42.8 °F 93% 29.76 in 10.0 mi NNE 4.6 mph - N/A   Clear
9:53 PM 44.6 °F 42.2 °F 42.8 °F 93% 29.75 in 10.0 mi NNE 4.6 mph - N/A   Clear
10:13 PM 44.6 °F 40.7 °F 42.8 °F 93% 29.74 in 10.0 mi North 6.9 mph - N/A   Clear
10:33 PM 44.6 °F 40.7 °F 42.8 °F 93% 29.74 in 10.0 mi NNE 6.9 mph - N/A   Clear
10:53 PM 44.6 °F 40.7 °F 42.8 °F 93% 29.74 in 10.0 mi NE 6.9 mph - N/A   Clear
11:13 PM 44.6 °F 39.2 °F 42.8 °F 93% 29.76 in 10.0 mi East 10.4 mph - N/A   Scattered Clouds
11:33 PM 44.6 °F 40.2 °F 42.8 °F 93% 29.75 in 10.0 mi ENE 8.1 mph - N/A   Overcast
11:53 PM 42.8 °F 38.6 °F 41.0 °F 93% 29.74 in 10.0 mi NE 6.9 mph - N/A   Overcast